Simultaneous Nadir Overpasses (SNOs) Predictions

Prediction of SNOs between GOES-14 and NOAA-20 Satellite Orbit:

Table of predicted SNOs for the next 14.0 days since TLE Epoch: 10/17/2020
Index Date Time (GOES-14) GOES-14 Lat,Lon NOAA-20 Lat,Lon Distance(km) Time Diff (sec)
1 10/17/2020 20:32:44 -0.19,-104.31 -0.85,-107.25 334.57 80
2 10/18/2020 20:16:40 -0.20,-104.32 0.14,-102.71 182.63 80
3 10/20/2020 08:38:30 0.17,-104.40 0.95,-108.01 411.12 80
4 10/21/2020 08:17:06 0.19,-104.38 -0.04,-103.47 103.97 80
5 10/23/2020 20:22:58 -0.16,-104.29 -0.16,-104.25 5.08 80
6 10/26/2020 08:26:04 0.15,-104.40 0.25,-105.01 69.39 80
7 10/27/2020 08:04:40 0.16,-104.39 -0.73,-100.48 446.23 80
8 10/28/2020 20:26:37 -0.13,-104.29 -0.44,-105.79 170.33 80
9 10/29/2020 20:10:33 -0.15,-104.30 0.55,-101.25 347.34 80
